铱星星座 154星 (IRIDIUM 154)

导读 | 豆包AI

IRIDIUM 154是美国于2018年7月25日发射的铱星系统卫星,铱星系统是美国提供全球卫星移动通信服务的低轨卫星通信网络,该卫星旨在替换系统中老化的旧卫星,为全球范围用户提供稳定的语音、数据通信服务,补充完善新一代铱星星座的全球覆盖能力,保障全球卫星通信网络的持续可靠运行。

基本信息
目录编号:
43574
目录名称:
IRIDIUM 154
国际标识:
2018-061F
轨道中心:
EARTH
卫星名称:
铱星星座 154星
卫星全名:
铱星星座 154星 (IRIDIUM 154)
卫星状态:
在轨 (已飞行2790 天)
发射日期:
2018-07-25 UTC
国别 :
美国 (US)
星等 :
--
轨道信息
数据来源 国际轨道数据 AOE轨道数据
星历时间 2026-03-15T02:21:39+0800
15小时前
查看轨道信息
2026-03-12T09:00:00+0800
3天前
查看轨道信息
半长轴 7155.806km 7155.803km
偏心率 0.0002195 0.0002407
轨道倾角 86.391° 86.392°
近地点辐角 96.474° 99.978°
升交点赤经 96.301° 97.441°
平近点角 263.671° 247.833°
近地点 776.098km 775.943km
远地点 779.24km 779.389km
周期 100.403分钟 100.403分钟
每日圈数 14.342172 14.342181
详细信息
平衡模式:
三轴稳定
覆盖范围:
全球
运营商:
铱星通信公司
运营商所在国:
美国
制造商(研发单位):
阿莱尼亚宇航公司
制造商所在国:
意大利
使用方式:
暂无
卫星简介
铱星(Iridium)是由共66个运作中的通信卫星组成的卫星通信系统。这个系统原本规划77个通信卫星,所以用原子序数为77的铱元素来命名。铱卫星允许人们使用手持型电子设备进行全球性的语音及数据通讯。该卫星仍在工作。
2D轨道图
3D轨道图
轨道高度分析图
轨道倾角分析图
轨道综合分析图
查看轨道综合分析图